Location: San Antonio
(29.4240°N, 98.4930°W)
Time: 17:12:00
(UTC-05:00)

ISS - All Passes

Search period start: 25 July 2014 00:00
Search period end: 04 August 2014 00:00
Orbit: 411 x 420 km, 51.6° (Epoch: 25 July)

Date Brightness Start Highest point End Pass type
(mag) Time Alt. Az. Time Alt. Az. Time Alt. Az.
25 Jul - 01:03:09 10° SW 01:06:28 78° SE 01:09:49 10° NE night (unlit)
25 Jul - 09:13:19 10° NW 09:16:37 56° NE 09:19:54 10° SE daylight
26 Jul - 00:14:43 10° SSW 00:17:47 34° SE 00:20:51 10° ENE night (unlit)
26 Jul - 01:52:23 10° WNW 01:54:34 16° NW 01:56:45 10° N night (unlit)
26 Jul - 08:24:51 10° NNW 08:27:48 28° NE 08:30:44 10° ESE daylight
26 Jul - 10:02:03 10° W 10:04:20 17° SW 10:06:36 10° S daylight
26 Jul - 23:26:54 10° S 23:29:09 17° SE 23:31:24 10° E night (unlit)
27 Jul - 01:02:45 10° WSW 01:05:40 28° NW 01:08:37 10° NNE night (unlit)
27 Jul - 07:36:42 10° N 07:38:55 16° NE 07:41:07 10° ENE daylight
27 Jul - 09:12:37 10° WNW 09:15:42 35° SW 09:18:46 10° SSE daylight
28 Jul - 00:13:36 10° SW 00:16:52 55° NW 00:20:10 10° NE night (unlit)
28 Jul - 08:23:40 10° NW 08:27:01 78° SW 08:30:22 10° SE daylight
28 Jul - 23:24:51 10° SW 23:28:09 67° SE 23:31:28 10° NE night (unlit)
29 Jul - 01:04:19 10° NW 01:05:10 11° NNW 01:06:02 10° NNW night (unlit)
29 Jul - 07:35:01 10° NNW 07:38:18 48° NE 07:41:33 10° ESE daylight
29 Jul - 22:36:33 10° SSW 22:39:30 30° SE 22:42:28 10° ENE night (unlit)
30 Jul - 00:13:53 10° W 00:16:14 18° NW 00:18:36 10° N night (unlit)
30 Jul - 06:46:39 10° NNW 06:49:30 25° NE 06:52:20 10° E daylight
30 Jul - 08:23:34 10° WNW 08:26:04 20° SW 08:28:34 10° S daylight
30 Jul - 21:48:57 10° SSE 21:50:55 15° SE 21:52:55 10° E night (unlit)
30 Jul - 23:24:24 10° WSW 23:27:24 31° NW 23:30:26 10° NNE night (unlit)
31 Jul - 05:58:37 10° N 06:00:38 15° NE 06:02:38 10° ENE visible
31 Jul - 07:34:18 10° WNW 07:37:29 40° SW 07:40:38 10° SSE daylight
31 Jul - 22:35:22 10° SW 22:38:39 64° NW 22:41:58 10° NE night (unlit)
01 Aug - 06:45:28 10° NW 06:48:50 89° SW 06:52:10 10° SE daylight
01 Aug - 21:46:44 10° SSW 21:49:59 57° SE 21:53:16 10° NE visible
01 Aug - 23:25:40 10° WNW 23:26:57 12° NW 23:28:15 10° NNW visible
02 Aug - 05:56:54 10° NNW 06:00:07 42° NE 06:03:19 10° ESE visible
02 Aug - 07:35:29 10° WSW 07:36:30 11° SW 07:37:31 10° SW daylight
02 Aug - 20:58:34 10° S 21:01:23 26° SE 21:04:14 10° ENE visible
02 Aug - 22:35:35 10° W 22:38:05 20° NW 22:40:36 10° N visible
03 Aug - 05:08:36 10° NNW 05:11:21 23° NE 05:14:05 10° E visible
03 Aug - 06:45:18 10° WNW 06:47:59 22° SW 06:50:39 10° S daylight
03 Aug - 20:11:12 10° SSE 20:12:51 13° SE 20:14:31 10° E daylight
03 Aug - 21:46:13 10° WSW 21:49:18 35° NW 21:52:23 10° NNE visible
